weather.gov     
National Weather Service

Terminal Aerodrome Forecast
NWS Homepage
This page is being discontinued on March 12, 2014.
The same data is available at this site. Please update your bookmarks.
Thank you, and we apologize for the inconvenience.
Please send an email to SR-SRH.Webmaster@noaa.gov with any concerns.


Current Version
Previous Version:    01  02  03  04  05  06  07  08  09  10  11  12  13  14  15  16  17  18  19  20  21  22  23  24  25  26  27  28  29  30  
   31  
[Printable]
547
FTUS44 KLZK 190800 AAA
TAFBPK
TAF AMD
KBPK 190826Z 1908/2006 00000KT 5SM BR OVC008
      TEMPO 1909/1913 2SM BR OVC002
     FM191600 10003KT 5SM BR OVC007
     FM192000 10002KT 6SM BR OVC012
     FM200000 11002KT 5SM BR SCT008 OVC012=


U.S. Dept. of Commerce
NOAA National Weather Service
1325 East West Highway
Silver Spring, MD 20910
E-mail: w-nws.webmaster@noaa.gov
Page last modified: May 16, 2007
NATIONAL WEATHER SERVICE: for Safety, for Work, for Fun - FOR LIFE